RH
69 53 35 26 22 27 28 23 37 48 68 66 62 66 80 89 69 86 89 88 88 96 94 90 91 90 90 89 90 90 85 84 83 82 79 78 77 74 73 72 74 68 64 64 65 66 67 70 72
31 27 26 28 32 29 28 32 54 57 61 60 56 65 73 86 85 96 93 88 88 92 95 92 92 92 91 91 91 89 84 84 83 80 78 76 73 72 72 72 75 67 62 60 60 62 64 67 69
35 25 23 29 36 29 28 46 54 50 48 42 48 49 62 84 86 88 90 86 87 96 96 96 95 93 92 93 92 90 89 88 85 80 77 73 70 68 71 72 74 64 59 58 58 60 62 66 70
28 25 21 25 30 24 24 44 48 48 45 46 52 48 57 76 85 91 89 90 95 99 98 97 96 95 94 92 91 93 93 91 88 84 76 71 68 67 69 71 69 62 60 61 62 64 65 68 75
29 25 26 25 26 24 24 41 44 48 48 51 46 58 76 92 89 90 93 92 92 98 98 97 97 96 94 92 93 94 92 92 89 85 81 74 68 68 71 71 68 66 64 65 66 68 69 72 78
26 25 27 29 25 35 33 40 46 49 48 52 60 66 82 92 92 89 88 89 84 91 94 96 95 94 95 94 96 94 92 92 90 87 83 75 75 76 72 70 70 68 68 69 70 72 73 76 79
28 24 28 26 39 41 29 42 47 44 51 54 50 75 92 96 90 87 83 82 87 91 87 90 97 96 96 96 95 94 93 92 90 88 86 84 83 81 78 76 71 69 72 74 74 76 79 78 81
27 25 46 27 38 46 37 26 42 49 54 42 49 93 89 89 89 86 84 86 87 86 88 92 99 98 98 97 94 92 90 90 89 88 86 84 82 80 79 79 77 75 74 75 76 81 83 83 85
25 28 29 28 45 44 32 25 31 43 46 50 51 67 80 94 90 90 95 95 94 93 96 99 99 98 96 95 93 90 88 88 88 87 84 87 88 87 86 84 81 80 82 81 82 85 86 88 87
27 30 24 18 27 40 31 26 38 48 57 54 64 80 92 97 95 89 90 92 93 99 98 98 97 96 96 83 95 95 91 95 94 92 92 92 92 91 84 86 85 85 86 85 84 84 86 84 92
28 24 17 13 22 28 24 29 40 53 64 56 72 87 94 97 97 98 97 95 94 93 94 96 96 96 95 89 97 98 98 97 96 93 93 93 93 96 96 97 96 94 79 87 88 83 84 76 82
23 18 14 10 13 17 17 19 46 44 42 49 64 74 84 89 83 83 82 80 81 84 82 88 91 93 93 91 96 95 97 97 97 96 93 96 96 93 96 92 83 82 84 80 80 81 77 78 78
20 14 13 12 12 12 11 16 38 31 55 46 59 65 72 72 68 61 57 61 74 77 79 84 87 87 85 87 93 93 94 95 93 94 90 91 86 87 85 84 83 83 82 83 81 82 79 76 73
17 12 13 15 12 11 10 14 16 31 56 50 57 62 65 62 59 62 65 69 73 73 80 86 89 84 80 85 84 92 92 90 92 93 86 83 84 86 83 79 75 78 81 81 83 81 78 75 73
12 12 13 14 18 18 17 20 20 52 52 50 49 53 53 51 54 54 57 63 70 75 87 95 90 89 90 91 90 92 95 85 86 81 82 81 82 80 73 72 72 79 80 77 76 76 71 70 68
16 19 18 16 19 21 14 16 20 68 55 60 55 57 59 63 61 59 54 61 79 92 96 94 86 91 91 91 94 95 86 81 89 84 86 74 70 68 71 73 80 81 78 70 76 80 69 73 77
23 23 26 23 21 20 18 31 38 39 65 68 67 64 72 83 92 93 92 74 94 95 96 97 93 92 94 97 98 91 78 74 72 75 78 76 73 70 74 72 75 71 72 77 72 74 76 79 74
22 25 47 25 34 42 41 58 62 67 50 77 87 88 92 98 91 91 96 97 97 96 94 96 94 96 97 92 86 76 67 76 83 86 70 65 66 65 69 70 72 74 73 78 78 76 78 79 83
25 26 28 31 27 45 62 67 67 82 84 86 92 93 96 95 82 91 96 94 94 95 93 93 94 94 94 80 84 82 85 89 80 69 64 60 60 67 72 78 78 80 81 84 85 87 88 84 91
31 31 36 34 34 49 59 61 67 67 80 82 89 94 94 90 88 87 92 92 90 90 93 93 92 83 71 81 88 90 86 76 71 66 70 70 71 70 69 79 84 85 82 86 91 90 92 92 94
42 35 41 36 40 45 48 54 62 61 72 70 72 77 83 87 90 90 90 88 80 78 75 68 68 68 72 72 71 68 70 76 79 72 70 74 75 74 77 78 79 81 83 84 94 93 94 96 94
42 40 35 36 45 50 44 71 63 70 76 76 77 80 85 83 74 70 65 66 64 68 64 61 59 60 61 64 68 69 77 79 86 77 76 78 75 74 71 70 79 83 86 85 88 87 95 94 97
42 40 38 42 46 47 47 65 67 69 83 81 82 81 83 78 69 64 57 62 70 68 70 71 70 69 72 74 74 79 84 82 78 74 76 76 76 70 69 75 81 84 87 90 88 88 89 93 94
38 46 50 59 56 66 60 57 64 71 68 74 72 74 72 76 78 72 67 65 69 67 67 72 69 68 67 66 68 69 68 68 68 68 71 77 80 86 85 81 84 88 89 88 90 89 87 89 91
47 53 75 76 79 77 56 61 54 51 58 65 68 72 73 79 79 76 71 67 71 74 75 69 66 64 64 64 64 64 64 66 65 66 72 76 86 92 92 85 77 80 82 84 85 86 87 87 92
48 53 77 63 83 73 56 68 58 52 52 56 62 68 72 77 73 71 71 79 75 68 66 65 64 63 63 64 64 66 67 74 75 73 76 83 87 91 87 83 78 75 79 83 84 90 89 87 92
51 56 52 74 82 84 73 60 57 63 62 61 63 67 76 73 76 77 75 75 75 73 73 70 65 65 64 66 72 74 75 76 81 81 84 90 90 80 86 84 75 79 79 78 85 92 91 90 90
43 45 57 72 63 59 68 72 73 66 66 64 70 71 77 76 77 78 77 74 72 71 70 68 65 69 72 77 80 78 80 77 78 82 86 87 87 81 76 73 80 78 78 82 84 85 83 85 91
49 52 61 62 73 73 84 72 59 57 59 62 72 74 74 74 76 76 73 68 62 58 56 60 58 66 67 66 71 70 71 72 78 81 83 83 81 78 77 80 80 78 74 73 74 74 73 82 80
49 52 50 68 59 87 83 62 50 59 58 68 74 71 72 71 72 70 67 62 54 54 54 51 55 50 53 58 60 60 68 75 83 80 80 83 83 82 84 74 75 78 80 72 71 71 73 75 73
Wind_Speed
1 2 3 4 4 6 3 5 2 3 4 2 5 7 5 2 2 3 7 4 11 6 6 9 14 16 16 16 16 15 14 14 13 13 13 14 13 13 13 14 13 15 16 16 15 14 15 14 15
2 4 4 3 5 3 4 3 7 9 6 7 8 2 5 4 6 8 5 10 10 6 5 7 12 15 16 15 15 14 14 14 13 13 13 13 13 13 13 13 12 13 14 14 14 14 14 14 13
1 4 5 5 3 3 4 5 7 9 2 5 5 4 3 8 1 5 10 14 10 6 6 7 11 14 15 15 14 13 13 12 12 12 12 11 12 11 12 12 11 13 14 14 13 13 11 11 11
2 5 5 5 5 6 5 9 11 5 1 7 5 3 6 1 6 4 13 11 10 6 5 8 11 12 15 14 14 14 12 11 11 10 11 11 10 10 11 11 11 12 13 14 13 13 11 10 10
4 4 3 3 4 4 3 9 9 3 4 6 5 3 3 3 13 13 12 10 11 7 6 7 10 12 14 14 13 13 12 11 10 9 9 10 9 9 10 10 9 10 12 12 12 11 10 9 9
4 3 5 2 4 6 2 7 6 1 4 1 6 6 1 8 14 13 11 11 9 10 7 7 10 11 11 12 12 12 12 10 9 8 8 8 7 8 9 8 8 9 10 10 10 10 10 10 10
5 4 4 5 2 4 4 3 4 7 7 1 6 3 2 4 10 12 11 10 8 8 10 8 5 7 9 10 10 11 11 9 8 7 7 6 6 6 7 7 6 7 7 8 9 9 9 10 11
5 5 3 1 4 3 1 2 10 1 3 3 7 6 8 5 11 11 9 8 7 7 7 9 5 5 5 5 9 9 9 8 7 6 5 5 5 5 5 6 6 7 8 8 8 9 10 11 11
3 5 1 6 10 5 10 5 3 0 6 4 5 4 9 15 14 11 7 5 5 6 7 4 4 4 5 4 5 8 8 8 8 6 6 5 2 3 3 2 4 6 7 7 7 8 8 10 11
3 4 8 6 7 7 15 9 8 4 4 5 4 9 14 14 15 16 14 12 10 7 5 3 3 5 6 4 5 5 5 4 4 4 4 3 4 2 2 2 5 5 6 6 6 6 7 6 4
3 5 6 4 8 13 10 5 3 9 2 7 13 13 12 12 9 11 11 12 14 6 4 7 6 5 5 3 3 2 2 2 2 4 4 3 2 1 1 2 3 2 4 3 3 3 3 4 3
1 7 6 6 8 6 10 7 6 5 5 10 17 20 14 15 13 13 13 12 9 8 9 6 5 5 4 2 3 1 1 1 2 2 2 2 2 3 3 3 2 3 2 3 2 2 3 4 4
4 6 2 2 8 4 9 6 6 4 3 10 12 16 17 15 12 10 11 8 6 7 5 5 5 4 3 2 2 1 2 2 2 2 1 2 3 3 3 3 3 4 4 3 4 4 4 4 5
5 2 2 4 8 4 7 4 5 3 6 11 16 16 13 14 13 7 5 5 6 5 5 3 4 6 5 4 4 4 4 5 3 3 3 4 3 3 4 4 4 4 3 4 4 4 4 5 4
4 5 5 5 2 4 6 3 1 3 8 13 15 12 5 4 2 4 4 4 6 4 8 7 7 8 8 7 6 4 2 4 2 3 3 5 5 6 5 4 4 3 4 5 5 5 4 5 4
5 6 4 4 3 3 6 6 9 2 14 8 7 6 7 5 2 1 6 4 6 8 11 10 8 7 9 9 6 5 4 3 4 4 4 6 6 6 5 4 4 4 4 4 4 4 3 3 3
7 3 1 2 2 3 4 2 8 5 5 7 6 7 6 6 8 8 9 5 8 11 12 11 9 10 9 9 5 1 4 5 3 4 4 5 5 5 6 4 4 4 3 4 3 2 2 3 4
5 3 1 3 2 12 8 6 8 8 8 6 7 7 7 7 8 8 9 10 10 10 12 9 7 10 6 3 4 3 4 3 3 4 3 6 5 5 6 5 5 5 4 4 4 3 2 2 1
4 4 4 1 4 10 5 6 9 8 9 7 7 7 7 7 6 7 7 8 9 7 9 8 8 4 3 2 3 3 2 2 3 4 6 5 8 7 6 4 5 4 5 4 4 1 3 3 4
6 9 4 3 6 10 9 10 9 10 5 5 6 7 7 6 6 7 7 7 7 5 5 7 6 6 6 4 3 2 2 1 4 4 6 7 6 6 6 5 4 4 4 5 5 4 2 2 4
5 6 1 5 5 5 6 6 7 6 7 8 7 5 5 7 8 6 8 6 7 6 7 7 7 6 4 5 3 3 3 3 3 3 3 3 4 5 5 5 5 4 3 3 3 3 5 2 3
3 3 5 5 4 4 3 2 3 2 5 4 3 3 5 7 7 6 6 6 8 6 6 7 6 6 4 4 4 3 2 2 1 2 2 3 3 4 3 3 4 3 1 4 3 3 2 2 2
2 5 5 3 5 5 4 6 3 6 2 4 4 3 3 4 6 8 10 7 6 6 5 6 6 7 6 7 7 5 6 3 2 2 5 3 1 2 1 0 2 3 2 2 3 2 2 0 1
3 5 8 5 4 3 1 5 5 7 8 5 4 5 4 3 2 1 6 6 6 5 6 7 8 8 7 8 7 8 7 4 1 1 2 3 2 3 4 1 4 5 3 1 0 0 2 2 2
6 6 4 4 4 5 3 2 6 10 7 9 10 9 6 3 3 4 6 4 2 8 7 7 7 7 6 7 6 4 2 1 3 3 3 4 3 4 1 2 3 2 2 3 2 2 2 2 2
3 5 6 6 4 4 3 4 5 5 9 9 6 5 6 5 4 5 5 5 5 8 7 7 6 5 2 3 2 0 2 2 4 4 4 4 4 2 4 4 2 1 3 4 4 2 3 3 3
2 3 3 8 2 3 3 4 4 5 5 7 7 7 7 6 6 7 6 6 6 7 6 6 4 1 0 3 5 5 4 4 4 6 5 3 5 2 2 2 2 4 5 7 4 4 5 4 4
3 5 3 4 3 3 3 4 5 6 9 6 7 8 7 6 7 6 6 6 4 6 6 5 4 3 1 2 2 3 4 6 6 5 6 5 4 2 4 7 5 5 6 5 5 4 5 4 4
3 2 6 5 4 5 1 7 6 13 12 11 9 9 12 11 10 7 6 5 6 4 6 5 2 3 4 4 4 5 4 4 4 4 4 5 5 7 8 5 4 4 4 6 5 5 5 5 3
2 3 5 6 3 1 4 8 3 8 8 9 10 10 9 7 6 6 6 5 4 5 5 6 4 3 2 2 2 2 3 4 4 5 6 6 7 6 4 3 4 4 6 6 4 6 3 2 4
Wind_Direction
125 197 120 31 56 75 269 267 302 80 48 343 75 83 136 68 298 146 116 77 124 129 139 139 132 130 127 123 119 116 116 110 106 104 101 100 101 100 94 86 81 79 73 69 62 56 52 45 36
182 154 54 61 79 124 259 240 96 93 156 142 80 37 63 51 337 132 116 133 120 115 108 131 132 129 127 126 123 125 123 119 114 113 113 113 111 103 99 92 82 78 74 72 67 57 48 43 35
146 51 82 102 122 189 210 115 106 129 193 194 99 136 36 105 151 158 112 122 115 107 119 131 131 129 131 127 127 127 123 122 124 122 124 119 107 102 96 90 84 78 73 66 62 61 56 51 48
121 16 24 94 236 255 198 139 161 139 12 37 145 146 112 206 166 122 118 109 107 104 112 128 131 132 127 134 133 127 128 129 131 135 127 116 112 107 97 88 76 68 65 62 59 59 53 46 39
34 61 72 79 270 264 248 134 141 135 163 106 149 79 50 58 108 119 116 117 132 125 123 138 136 136 140 137 134 132 133 134 139 138 130 126 122 107 96 88 84 72 66 66 63 61 58 48 38
52 105 69 91 292 331 11 105 127 84 85 175 98 116 156 123 128 128 126 129 142 140 145 147 152 142 134 137 137 142 136 141 143 142 136 132 127 116 99 85 74 67 61 59 54 50 41 31 26
119 96 174 165 146 13 33 74 80 75 228 116 104 100 96 96 134 128 133 133 145 147 158 156 133 133 143 142 144 141 139 147 148 146 136 130 125 105 94 80 65 54 50 45 39 32 28 21 10
108 89 127 274 128 95 242 105 142 292 140 88 154 151 163 159 140 124 129 141 151 163 165 164 155 143 137 146 153 141 142 148 147 140 137 121 108 97 77 60 32 26 21 25 21 13 11 6 357
128 67 171 171 168 173 53 322 354 175 105 44 359 137 127 131 131 126 143 143 155 181 178 161 147 146 149 155 152 135 145 155 159 165 154 128 132 112 81 57 26 13 9 4 358 359 359 353 352
114 109 210 202 164 177 181 178 144 115 102 33 51 60 110 130 148 156 166 170 181 192 193 166 160 167 166 167 141 148 164 162 163 164 172 180 166 157 128 53 6 350 5 355 4 6 20 20 354
123 197 178 238 188 172 172 110 112 117 261 200 161 143 138 140 159 169 178 185 188 180 161 191 182 181 170 141 150 153 158 161 184 175 188 194 155 107 70 73 52 16 22 9 41 49 40 14 351
101 215 213 201 215 121 147 121 109 173 239 155 163 154 150 163 180 184 185 193 177 175 191 180 173 169 175 151 165 149 98 174 183 215 200 160 122 96 80 82 78 69 24 32 33 35 33 26 32
207 306 86 159 117 85 130 136 181 221 92 112 142 156 167 171 190 201 199 191 147 183 173 178 166 179 157 99 66 189 230 226 220 209 145 72 61 88 101 87 64 46 24 12 14 30 33 37 20
191 112 349 50 131 109 113 144 136 274 143 129 159 174 169 178 194 200 198 173 167 153 148 140 83 44 40 34 23 359 348 327 329 30 51 75 103 124 86 69 51 44 29 16 30 23 27 30 8
128 75 8 21 73 91 114 45 232 136 147 156 178 178 131 147 174 231 191 180 131 132 99 77 86 86 77 66 61 51 16 335 32 53 36 85 82 73 75 66 43 34 37 32 24 21 21 20 358
67 53 85 300 61 54 91 258 4 224 148 157 111 121 111 70 49 345 176 152 130 109 102 91 87 83 78 69 46 19 23 27 350 67 39 68 72 75 73 73 51 46 49 45 44 25 358 350 1
17 169 149 56 56 105 79 4 340 326 68 90 89 86 83 66 31 9 7 119 112 113 104 97 88 82 65 77 64 5 56 53 54 60 46 31 54 64 92 76 80 86 72 60 47 24 2 330 340
197 155 185 177 45 39 64 2 338 0 98 97 89 74 66 58 50 49 49 63 76 95 102 95 92 96 105 114 142 135 85 81 53 42 68 86 69 42 63 56 43 45 40 34 24 19 304 261 299
159 131 115 304 60 79 71 54 11 28 62 75 77 82 81 70 79 77 81 85 85 75 103 98 102 113 147 120 86 77 118 47 52 55 47 28 57 56 59 58 49 38 59 48 43 354 1 333 337
82 101 79 78 26 88 86 52 35 31 43 62 87 86 93 93 80 87 81 92 93 107 115 124 127 159 146 152 175 119 148 113 75 58 43 40 46 51 73 79 69 57 70 54 41 51 6 321 11
45 97 355 134 84 75 89 45 23 17 51 55 45 71 80 113 103 90 101 101 92 109 115 109 113 109 79 73 87 60 54 61 60 49 49 27 66 77 93 99 96 85 79 98 74 45 57 346 330
81 88 97 116 72 159 43 209 74 20 42 23 43 71 112 120 115 114 110 103 90 60 62 83 98 97 78 53 69 78 82 91 38 75 80 56 80 139 147 104 88 90 90 65 77 74 71 63 359
108 74 94 120 105 96 15 85 261 127 196 220 215 214 202 154 141 146 126 105 99 96 96 92 89 73 64 61 68 77 75 87 127 143 161 192 264 8 45 172 160 125 104 99 92 55 37 116 236
111 58 38 54 70 47 285 125 236 191 187 178 205 222 206 205 243 144 87 115 111 101 79 71 75 60 63 77 85 104 120 152 163 245 197 233 236 252 255 232 30 36 38 261 145 349 357 343 323
69 63 10 1 11 220 327 106 233 208 173 174 185 198 190 168 196 85 89 71 86 94 84 87 87 85 78 81 80 87 115 236 262 259 252 259 259 244 257 153 184 187 231 261 284 278 289 289 274
74 141 152 206 191 241 351 245 257 242 182 167 170 133 139 149 130 118 112 119 117 98 98 98 94 99 105 98 91 356 285 270 269 266 268 260 248 251 191 192 169 315 283 275 245 276 274 265 271
171 56 155 107 14 61 250 294 334 70 119 148 156 137 162 160 144 139 136 141 115 107 96 101 104 130 266 25 12 351 343 336 297 293 287 311 324 290 245 287 226 238 257 267 265 246 266 270 272
113 142 62 6 135 245 297 272 233 191 190 164 161 169 165 154 156 159 164 152 140 135 127 118 128 206 270 39 19 13 357 357 345 329 322 319 297 259 208 219 235 246 267 273 261 269 263 261 277
14 45 57 104 108 154 247 261 221 196 192 181 185 176 169 170 171 172 172 151 127 126 108 95 89 65 54 41 33 24 346 337 346 349 309 269 245 232 238 217 240 266 297 271 255 261 274 270 273
171 135 126 112 205 83 142 273 298 228 187 156 181 177 175 166 158 165 163 156 175 140 131 116 105 122 99 61 26 311 332 351 336 302 276 264 255 258 274 261 271 287 289 268 257 271 299 291 302